Time,TemperatureF,DewpointF,PressureIn,WindDirection,WindDirectionDegrees,WindSpeedMPH,WindSpeedGustMPH,Humidity,HourlyPrecipIn,Conditions,Clouds,dailyrainin,SoftwareType,DateUTC
2013-11-13 00:13:00,24.0,18.0,30.57,WSW,251,3.0,5.0,77,-99.99,,,-99.99,,2013-11-13 05:13:00,
2013-11-13 00:23:00,23.0,17.0,30.57,WSW,251,2.0,5.0,77,-99.99,,,-99.99,,2013-11-13 05:23:00,
2013-11-13 00:43:00,23.0,17.0,30.58,West,267,5.0,9.0,77,-99.99,,,-99.99,,2013-11-13 05:43:00,
2013-11-13 00:54:00,23.0,17.0,30.58,West,277,5.0,9.0,77,-99.99,,,-99.99,,2013-11-13 05:54:00,
2013-11-13 01:23:00,24.0,17.0,30.58,West,259,5.0,10.0,75,-99.99,,,-99.99,,2013-11-13 06:23:00,
2013-11-13 01:42:00,24.0,17.0,30.58,WSW,254,3.0,7.0,75,-99.99,,,-99.99,,2013-11-13 06:42:00,
2013-11-13 01:52:00,23.0,16.0,30.58,West,263,2.0,7.0,75,-99.99,,,-99.99,,2013-11-13 06:52:00,
2013-11-13 02:11:00,23.0,17.0,30.58,WSW,244,4.0,10.0,76,-99.99,,,-99.99,,2013-11-13 07:11:00,
2013-11-13 02:22:00,23.0,17.0,30.58,West,274,2.0,7.0,76,-99.99,,,-99.99,,2013-11-13 07:22:00,
2013-11-13 02:42:00,23.0,17.0,30.58,West,267,3.0,5.0,76,-99.99,,,-99.99,,2013-11-13 07:42:00,
2013-11-13 02:52:00,22.0,16.0,30.58,WSW,250,3.0,4.0,77,-99.99,,,-99.99,,2013-11-13 07:52:00,
2013-11-13 03:22:00,22.0,16.0,30.58,WSW,250,3.0,5.0,79,-99.99,,,-99.99,,2013-11-13 08:22:00,
2013-11-13 03:42:00,22.0,16.0,30.58,WSW,250,2.0,5.0,79,-99.99,,,-99.99,,2013-11-13 08:42:00,
2013-11-13 03:52:00,21.0,16.0,30.58,WSW,250,2.0,5.0,79,-99.99,,,-99.99,,2013-11-13 08:52:00,
2013-11-13 04:11:00,21.0,16.0,30.58,WSW,248,4.0,6.0,80,-99.99,,,-99.99,,2013-11-13 09:11:00,
2013-11-13 04:22:00,21.0,16.0,30.58,WSW,248,2.0,5.0,80,-99.99,,,-99.99,,2013-11-13 09:22:00,
2013-11-13 04:43:00,21.0,16.0,30.58,WSW,249,3.0,6.0,81,-99.99,,,-99.99,,2013-11-13 09:43:00,
2013-11-13 04:53:00,21.0,16.0,30.58,WSW,249,4.0,7.0,81,-99.99,,,-99.99,,2013-11-13 09:53:00,
2013-11-13 05:13:00,20.0,15.0,30.58,WSW,249,3.0,6.0,82,-99.99,,,-99.99,,2013-11-13 10:13:00,
2013-11-13 05:23:00,20.0,15.0,30.58,WSW,250,3.0,6.0,82,-99.99,,,-99.99,,2013-11-13 10:23:00,
2013-11-13 05:42:00,20.0,15.0,30.58,WSW,248,3.0,6.0,82,-99.99,,,-99.99,,2013-11-13 10:42:00,
2013-11-13 05:52:00,20.0,15.0,30.58,WSW,246,4.0,6.0,82,-99.99,,,-99.99,,2013-11-13 10:52:00,
2013-11-13 06:12:00,20.0,16.0,30.57,WSW,244,2.0,6.0,83,-99.99,,,-99.99,,2013-11-13 11:12:00,
2013-11-13 06:22:00,20.0,16.0,30.57,WSW,244,1.0,4.0,83,-99.99,,,-99.99,,2013-11-13 11:22:00,
2013-11-13 06:42:00,20.0,16.0,30.58,WSW,243,3.0,6.0,83,-99.99,,,-99.99,,2013-11-13 11:42:00,
2013-11-13 06:52:00,19.0,15.0,30.58,WSW,243,3.0,5.0,83,-99.99,,,-99.99,,2013-11-13 11:52:00,
2013-11-13 07:12:00,19.0,15.0,30.58,WSW,242,3.0,5.0,83,-99.99,,,-99.99,,2013-11-13 12:12:00,
2013-11-13 07:22:00,19.0,15.0,30.58,South,191,3.0,6.0,84,-99.99,,,-99.99,,2013-11-13 12:22:00,
2013-11-13 07:42:00,19.0,15.0,30.58,SSW,205,1.0,5.0,84,-99.99,,,-99.99,,2013-11-13 12:42:00,
2013-11-13 07:52:00,19.0,15.0,30.58,SW,232,3.0,7.0,84,-99.99,,,-99.99,,2013-11-13 12:52:00,
2013-11-13 08:11:00,19.0,15.0,30.58,SW,234,2.0,9.0,85,-99.99,,,-99.99,,2013-11-13 13:11:00,
2013-11-13 08:22:00,19.0,15.0,30.58,WSW,244,4.0,11.0,85,-99.99,,,-99.99,,2013-11-13 13:22:00,
2013-11-13 08:42:00,20.0,16.0,30.59,South,187,2.0,8.0,85,-99.99,,,-99.99,,2013-11-13 13:42:00,
2013-11-13 08:52:00,20.0,16.0,30.58,SW,225,6.0,11.0,84,-99.99,,,-99.99,,2013-11-13 13:52:00,
2013-11-13 09:11:00,21.0,16.0,30.58,West,270,5.0,10.0,82,-99.99,,,-99.99,,2013-11-13 14:11:00,
2013-11-13 09:22:00,22.0,16.0,30.58,SW,228,4.0,8.0,79,-99.99,,,-99.99,,2013-11-13 14:22:00,
2013-11-13 09:42:00,23.0,16.0,30.58,WSW,243,6.0,13.0,75,-99.99,,,-99.99,,2013-11-13 14:42:00,
2013-11-13 09:53:00,24.0,16.0,30.58,SSW,213,5.0,13.0,72,-99.99,,,-99.99,,2013-11-13 14:53:00,
2013-11-13 10:12:00,25.0,16.0,30.57,West,261,8.0,14.0,67,-99.99,,,-99.99,,2013-11-13 15:12:00,
2013-11-13 10:22:00,26.0,16.0,30.57,West,263,6.0,11.0,65,-99.99,,,-99.99,,2013-11-13 15:22:00,
2013-11-13 10:43:00,28.0,17.0,30.57,SSW,206,3.0,7.0,64,-99.99,,,-99.99,,2013-11-13 15:43:00,
2013-11-13 10:53:00,28.0,16.0,30.56,WSW,247,7.0,11.0,61,-99.99,,,-99.99,,2013-11-13 15:53:00,
2013-11-13 11:23:00,29.0,16.0,30.55,SSW,197,8.0,13.0,58,-99.99,,,-99.99,,2013-11-13 16:23:00,
2013-11-13 11:43:00,30.0,16.0,30.55,West,269,5.0,13.0,55,-99.99,,,-99.99,,2013-11-13 16:43:00,
2013-11-13 11:53:00,31.0,15.0,30.54,SW,229,7.0,16.0,51,-99.99,,,-99.99,,2013-11-13 16:53:00,
2013-11-13 12:12:00,31.0,15.0,30.53,SW,223,8.0,17.0,51,-99.99,,,-99.99,,2013-11-13 17:12:00,
2013-11-13 12:23:00,32.0,14.0,30.53,West,265,9.0,20.0,46,-99.99,,,-99.99,,2013-11-13 17:23:00,
2013-11-13 12:52:00,34.0,15.0,30.51,SW,224,10.0,16.0,46,-99.99,,,-99.99,,2013-11-13 17:52:00,
2013-11-13 13:12:00,34.0,15.0,30.50,SW,229,6.0,16.0,46,-99.99,,,-99.99,,2013-11-13 18:12:00,
2013-11-13 13:23:00,34.0,16.0,30.49,SSW,211,7.0,12.0,47,-99.99,,,-99.99,,2013-11-13 18:23:00,
2013-11-13 13:42:00,34.0,16.0,30.48,WSW,238,9.0,18.0,48,-99.99,,,-99.99,,2013-11-13 18:42:00,
2013-11-13 13:52:00,35.0,16.0,30.47,SW,227,7.0,17.0,46,-99.99,,,-99.99,,2013-11-13 18:52:00,
2013-11-13 14:11:00,35.0,15.0,30.46,SSW,192,9.0,17.0,44,-99.99,,,-99.99,,2013-11-13 19:11:00,
2013-11-13 14:22:00,36.0,16.0,30.46,SW,229,9.0,19.0,43,-99.99,,,-99.99,,2013-11-13 19:22:00,
2013-11-13 14:42:00,36.0,15.0,30.45,SW,230,10.0,17.0,41,-99.99,,,-99.99,,2013-11-13 19:42:00,
2013-11-13 14:52:00,37.0,16.0,30.45,SSW,197,6.0,18.0,41,-99.99,,,-99.99,,2013-11-13 19:52:00,
2013-11-13 15:22:00,38.0,15.0,30.42,WSW,255,10.0,20.0,38,-99.99,,,-99.99,,2013-11-13 20:22:00,
2013-11-13 15:42:00,38.0,15.0,30.41,WSW,250,8.0,17.0,38,-99.99,,,-99.99,,2013-11-13 20:42:00,
2013-11-13 15:52:00,38.0,15.0,30.41,South,180,11.0,17.0,38,-99.99,,,-99.99,,2013-11-13 20:52:00,
2013-11-13 16:12:00,38.0,15.0,30.40,SSW,210,10.0,20.0,39,-99.99,,,-99.99,,2013-11-13 21:12:00,
2013-11-13 16:22:00,37.0,14.0,30.40,SSW,194,11.0,19.0,39,-99.99,,,-99.99,,2013-11-13 21:22:00,
2013-11-13 16:43:00,37.0,15.0,30.40,SW,216,9.0,18.0,40,-99.99,,,-99.99,,2013-11-13 21:43:00,
2013-11-13 16:53:00,37.0,16.0,30.40,South,178,9.0,18.0,41,-99.99,,,-99.99,,2013-11-13 21:53:00,
2013-11-13 17:13:00,37.0,17.0,30.39,SSW,196,8.0,16.0,43,-99.99,,,-99.99,,2013-11-13 22:13:00,
2013-11-13 17:23:00,37.0,18.0,30.38,SSW,200,6.0,13.0,45,-99.99,,,-99.99,,2013-11-13 22:23:00,
2013-11-13 17:42:00,36.0,18.0,30.38,South,182,6.0,13.0,48,-99.99,,,-99.99,,2013-11-13 22:42:00,
2013-11-13 17:53:00,35.0,19.0,30.37,South,175,6.0,15.0,52,-99.99,,,-99.99,,2013-11-13 22:53:00,
2013-11-13 18:11:00,35.0,19.0,30.37,SW,218,8.0,15.0,52,-99.99,,,-99.99,,2013-11-13 23:11:00,
2013-11-13 18:22:00,34.0,19.0,30.37,SSW,203,6.0,13.0,53,-99.99,,,-99.99,,2013-11-13 23:22:00,
2013-11-13 18:43:00,34.0,19.0,30.37,SSW,213,7.0,13.0,54,-99.99,,,-99.99,,2013-11-13 23:43:00,
2013-11-13 18:53:00,33.0,18.0,30.36,SW,231,5.0,14.0,54,-99.99,,,-99.99,,2013-11-13 23:53:00,
2013-11-13 19:11:00,33.0,19.0,30.36,SW,233,6.0,10.0,55,-99.99,,,-99.99,,2013-11-14 00:11:00,
2013-11-13 19:22:00,33.0,18.0,30.36,SSW,192,6.0,11.0,53,-99.99,,,-99.99,,2013-11-14 00:22:00,
2013-11-13 19:42:00,32.0,19.0,30.36,SSW,212,7.0,12.0,57,-99.99,,,-99.99,,2013-11-14 00:42:00,
2013-11-13 19:52:00,32.0,19.0,30.35,SW,218,6.0,12.0,58,-99.99,,,-99.99,,2013-11-14 00:52:00,
2013-11-13 20:11:00,32.0,19.0,30.35,SSW,200,7.0,12.0,58,-99.99,,,-99.99,,2013-11-14 01:11:00,
2013-11-13 20:22:00,32.0,19.0,30.34,SSW,194,5.0,12.0,58,-99.99,,,-99.99,,2013-11-14 01:22:00,
2013-11-13 20:42:00,32.0,19.0,30.33,SSW,197,9.0,18.0,58,-99.99,,,-99.99,,2013-11-14 01:42:00,
2013-11-13 20:52:00,32.0,19.0,30.32,SSW,211,9.0,17.0,57,-99.99,,,-99.99,,2013-11-14 01:52:00,
2013-11-13 21:12:00,32.0,19.0,30.32,SW,215,8.0,13.0,58,-99.99,,,-99.99,,2013-11-14 02:12:00,
2013-11-13 21:22:00,32.0,19.0,30.32,SSW,192,6.0,13.0,58,-99.99,,,-99.99,,2013-11-14 02:22:00,
2013-11-13 22:12:00,31.0,18.0,30.31,SW,219,8.0,18.0,58,-99.99,,,-99.99,,2013-11-14 03:12:00,
2013-11-13 22:21:00,31.0,18.0,30.30,SSW,207,9.0,20.0,58,-99.99,,,-99.99,,2013-11-14 03:21:00,
2013-11-13 22:44:00,31.0,18.0,30.29,SSW,198,9.0,17.0,59,-99.99,,,-99.99,,2013-11-14 03:44:00,
2013-11-13 22:54:00,31.0,18.0,30.29,SW,222,11.0,16.0,59,-99.99,,,-99.99,,2013-11-14 03:54:00,
2013-11-13 23:14:00,31.0,18.0,30.28,SW,228,10.0,17.0,59,-99.99,,,-99.99,,2013-11-14 04:14:00,
2013-11-13 23:24:00,31.0,18.0,30.28,South,182,8.0,17.0,59,-99.99,,,-99.99,,2013-11-14 04:24:00,
2013-11-13 23:43:00,31.0,18.0,30.27,SSW,196,8.0,16.0,59,-99.99,,,-99.99,,2013-11-14 04:43:00,
2013-11-13 23:54:00,31.0,19.0,30.27,SSW,193,8.0,18.0,60,-99.99,,,-99.99,,2013-11-14 04:54:00,